Estación Meteorológica Peña el Pijo (Robertgarden) [ 07/15/20 07:12:03 CEST ]

Fecha Hora Presion(HPa) Temp (°C) Humedad % Rocio (°C) Viento ( m/s) Direccion Lluvia 1Hora(mm) Lluvia 24H(mm) LLuvia Total(mm)
2020-Mar-21 01:09:14 1003.900 - - - - N     39.88
2020-Mar-21 02:09:46 1003.100 - - - - N     39.88
2020-Mar-21 03:11:49 1002.200 - - - - N     39.88
2020-Mar-21 04:09:40 1001.900 - - - - N     39.88
2020-Mar-21 05:09:13 1001.800 - - - - N     39.88
2020-Mar-21 06:09:08 1001.900 - - - - N     39.88
2020-Mar-21 07:09:04 1001.800 - - - - N     39.88
2020-Mar-21 08:08:51 1001.300 - - - - N     39.88
2020-Mar-21 09:09:19 1001.700 - - - - N     39.88
2020-Mar-21 10:09:03 1001.700 - - - - N     39.88
2020-Mar-21 11:08:56 1002.100 - - - - N     39.88
2020-Mar-21 12:09:20 1001.800 - - - - N     39.88
2020-Mar-21 13:09:10 1001.800 - - - - N     39.88
2020-Mar-21 14:09:25 1001.700 - - - - N     39.88
2020-Mar-21 15:09:09 1001.200 - - - - N     39.88
2020-Mar-21 16:09:26 1000.600 - - - - N     39.88
2020-Mar-21 17:09:04 1000.100 - - - - N     39.88
2020-Mar-21 18:09:09 999.900 - - - - N     39.88
2020-Mar-21 19:08:43 1000.500 - - - - N     39.88
2020-Mar-21 20:09:18 1001.000 - - - - N     39.88
2020-Mar-21 21:09:22 1001.000 - - - - N     39.88
2020-Mar-21 22:08:54 1001.300 - - - - N     39.88
2020-Mar-21 23:08:54 1001.200 - - - - N     39.88

Temperatura Máxima:    Temperatura Mínima:
Presión Máxima:1003.900 Hpa    Presión Mínima:999.900 Hpa


Volver